Regional Weather Roundup
Issued by NWS Upton, NY

Current Version | Previous Version | Text Only | Print | Product List | Glossary On
Versions: 1 2 3 4 5 6 7 8 9 10 11 12 13 14 15 16 17 18 19 20 21 22 23 24 25 26 27
000
ASUS41 KOKX 240104
RWROKX

REGIONAL WEATHER ROUNDUP
NATIONAL WEATHER SERVICE NEW YORK NY
900 PM EDT MON MAY 23 2016

NOTE: "FAIR" INDICATES FEW OR NO CLOUDS BELOW 12,000 FEET WITH NO
SIGNIFICANT WEATHER AND/OR OBSTRUCTIONS TO VISIBILITY.

NYZ071-072-176-178-NJZ106-104-240200-
NEW YORK CITY METRO AREA


CITY           SKY/WX    TMP DP  RH WIND       PRES   REMARKS
CENTRAL PARK   CLOUDY    64  43  46 VRB5      29.91S
LAGUARDIA APRT MOCLDY    65  48  54 S9        29.89R
KENNEDY INTL   CLOUDY    62  48  60 S6        29.90S
NEWARK/LIBERTY CLOUDY    65  46  50 S6        29.89R
BRNX BOT. GARD   N/A     63  43  48 SW2       29.90R
TETERBORO      CLOUDY    64  45  49 S7        29.87R
$$

NYZ177-179-078>081-240200-
LONG ISLAND NEW YORK

CITY           SKY/WX    TMP DP  RH WIND       PRES   REMARKS
FARMINGDALE    CLOUDY    64  44  48 SW5       29.90R
ISLIP          MOCLDY    64  46  52 S3        29.89S
SHIRLEY        CLOUDY    63  47  55 CALM      29.91R
RIVERHEAD        N/A     63  50  63 CALM      29.89S
WESTHAMPTON    LGT RAIN  53  53 100 CALM      29.91R
EAST HAMPTON   LGT RAIN  60  51  70 E6        29.89R
MONTAUK POINT    N/A     57  53  86 CALM      29.91S
$$

NYZ052-065-067-240200-
HUDSON VALLEY

CITY           SKY/WX    TMP DP  RH WIND       PRES   REMARKS
WHITE PLAINS   CLOUDY    62  47  57 SE6       29.89R
NEWBURGH       MOCLDY    66  55  68 E7        29.86
MONTGOMERY     MOCLDY    67  54  63 S9        29.85R
POUGHKEEPSIE   CLOUDY    68  54  60 SE3       29.84R
ALBANY         PTCLDY    65  40  39 CALM      29.85R
$$

NJZ001-105-106-008-010-013-015-019>022-104-240200-
NEW JERSEY

CITY           SKY/WX    TMP DP  RH WIND       PRES   REMARKS
NEWARK/LIBERTY CLOUDY    65  46  50 S6        29.89R
TETERBORO      CLOUDY    64  45  49 S7        29.87R
CALDWELL       CLOUDY    63  57  81 CALM      29.89R
MORRISTOWN     NOT AVBL
SOMERVILLE     CLOUDY    61  59  93 CALM      29.87R
SUSSEX         CLOUDY    66  51  58 SW3       29.87R
ANDOVER          N/A     64  54  69 S3        29.89R
TRENTON        CLOUDY    62  57  83 S5        29.89S
MILLVILLE      CLOUDY    60  51  72 CALM      29.91S
ATLANTIC CITY  LGT RAIN  61  51  70 CALM      29.92R
WRIGHTSTOWN    LGT RAIN  59  55  88 S2        29.89R
TOMS RIVER     CLOUDY    61  50  67 SW6       29.91R
BELMAR         CLOUDY    62  48  60 S5        29.91S
$$

PAZ047>061-062-071-240200-
EASTERN PENNSYLVANIA

CITY           SKY/WX    TMP DP  RH WIND       PRES   REMARKS
PHILADELPHIA   MOCLDY    61  57  87 CALM      29.91R
ALLENTOWN      CLOUDY    62  56  80 W5        29.88R
SCRANTON       CLEAR     61  57  87 SE3       29.87S
$$

CTZ002-004>006-009-010-012-RIZ004-006-007-MAZ004-011-015-240200-
SOUTHERN NEW ENGLAND
 IN CT

CITY           SKY/WX    TMP DP  RH WIND       PRES   REMARKS
BRADLEY INTL   CLOUDY    70  49  47 S14       29.87R
HARTFORD       CLOUDY    70  48  45 S8        29.88R
DANBURY        CLOUDY    64  47  53 CALM      29.90R
WTRBRY/OXFORD  CLOUDY    63  45  51 S8        29.92R
BRIDGEPORT     CLOUDY    65  50  58 SW6       29.89R
MERIDEN        CLOUDY    66  46  48 CALM      29.89R
NEW HAVEN      MOCLDY    64  50  60 CALM      29.89R
CHESTER        CLOUDY    64  48  55 S5        29.89S
GROTON         CLOUDY    58  53  84 S8        29.89R
WILLIMANTIC    CLOUDY    68  45  43 SW5       29.89R

 IN RI

CITY           SKY/WX    TMP DP  RH WIND       PRES   REMARKS
PROVIDENCE     CLOUDY    66  49  54 SE5       29.88S
BLOCK ISLAND   LGT RAIN  57  52  83 E12       29.89S
WESTERLY       CLOUDY    60  51  72 CALM      29.90R

 IN MA

CITY           SKY/WX    TMP DP  RH WIND       PRES   REMARKS
BOSTON         CLOUDY    59  52  77 E6        29.89R
WORCESTER      CLOUDY    65  40  39 SE5       29.90S
WESTFIELD      CLOUDY    71  45  39 SE6       29.87R
PROVINCETOWN   CLOUDY    59  53  80 E6        29.90S
NANTUCKET      CLEAR     53  50  89 E8        29.89R
$$

ANZ330-335-338-340-345-350-353-355-240200-
COASTAL MARINE OBSERVATIONS


STATION/POSITION TIME  SKY/WX   TEMP    WIND        PRES    VSBY  WAVE
                                AIR SEA DIR/SP/G                  HT/PER
                 (UTC)          (F)     (DEG/KT/KT) (MB)    (MI)  (FT/S)
NY HARB ENTRANCE NOT AVBL
20S FIRE ISLAND  NOT AVBL
GREAT SOUTH BAY  0000            63 65  270/  8/ 10   N/A
23 SSW MONTAUK P 0050            56 55  140/  8/ 10 1012.1          3/ 9
15 E BARNEGAT LI 0022               56                N/A           4/ 7
HUDSON CANYON    2350            54 52              1011.4          4/ 8
KINGS POINT      0000            63 59              1011.7
EXECUTION ROCKS  NOT AVBL
CENTRAL LI SOUND 0000            62     180/  6/  8   N/A           0
EASTERN LI SOUND 0000            60 53   CALM  /  2   N/A
ROBBINS REEF     0000            63     160/ 12/ 13 1011.1
$$


>>>>>>>>>>>>>>>>>>>>>>>>>>>> KEY <<<<<<<<<<<<<<<<<<<<<<<<<<<
>                                                          <
>     SKY/WX - SKY CONDITION/PRESENT WEATHER               <
>     TMP    - TEMPERATURE IN FAHRENHEIT                   <
>     DP     - DEWPOINT IN FAHRENHEIT                      <
>     RH     - RELATIVE HUMIDITY IN PERCENT                <
>     WIND   - DIRECTION AND SPEED IN MPH                  <
>     PRES   - MEAN SEA LEVEL PRESSURE IN INCHES OF HG     <
>     WCI    - WIND CHILL INDEX                            <
>     VSB    - VISIBILITY IN MILES                         <
>     HX     - HEAT INDEX                                  <
>     TC     - TEMPERATURE IN CELSIUS                      <
>     VRB    - VARIABLE WIND DIRECTION                     <
>                                                          <
>>>>>>>>>>>>>>>>>>>>>>>>>>>> KEY <<<<<<<<<<<<<<<<<<<<<<<<<<<






USA.gov is the U.S. government's official web portal to all federal, state and local government web resources and services.